Шилега

Россия / Архангельская область     64°01′50″N   44°06′27″E
темп.,
°C
ветер,
м/с
пор.,
м/с
влажн.,
%
обл.,
%
осадки,
мм/ч
давл.,
гПа
погр.,
м
4 марта, чт
чт400:00−11сз239797 0.1 99365
03:00−13с259796 0.2 994133
06:00−15с2696100 0.1 993224
09:00−14ссз369298 0.1 994442
12:00−14ссз3589100 0.1 994614
15:00−14ссз3589100 0.1 995618
18:00−16ссз269699 0.1 995273
21:00−19ссз259791 0.1 996154
5 марта, пт
пт500:00−19ссз259895 0.1 997185
03:00−19сз269796 0.2 999250
06:00−18ссз379696 0.1 1000297
09:00−17с369396 0.2 1001410
12:00−15с3590100 0.1 1003540
15:00−15ссз3588100 0.1 1005602
18:00−18ссз2596100 0.1 1006146
21:00−23ссз229678 0.1 100820
6 марта, сб
сб600:00−24сз129761 0.0 100920
03:00−24з129878 0.0 100920
06:00−25з129975 0.0 100919
09:00−22юз119776 0.0 100979
12:00−16ююз138755 0.0 1007305
15:00−12ююз249173 0.0 1006438
18:00−14ю249797 0.1 1004106
21:00−16ю249897 0.1 100283
7 марта, вс
вс700:00−17юв349884 0.0 100083
03:00−18юв389775 0.0 999166
06:00−16юв4109296 0.0 997294
09:00−15вюв5128498 0.0 996447
12:00−12вюв51086100 0.0 996514
15:00−11в51089100 0.1 997621
18:00−12в41094100 0.4 998662
21:00−13в4994100 0.8 1000537
8 марта, пн
пн800:00−15всв4894100 0.2 1001400
03:00−16св4993100 0.3 1003369
06:00−19ссв4993100 0.0 1004323
09:00−21ссв489392 0.0 1007298
12:00−18ссв489140 0.0 1009370
15:00−17ссв489144 0.0 1011429
18:00−21с399698 0.0 1013268
21:00−25с259770 0.0 1016122